Showing default

LKW-1, 43034

Orbit data source: Space-Track

LKW-1, 43034 is a Chinese payload satellite in SSO that was launched on Sun, 03 Dec 2017 UTC via a CHANG ZHENG 2D launch vehicle from the Jiuquan Satellite Launch Center, China (JSC). Payload-class satellites include a variety of spacecraft equipped with specific instruments for various scientific and technological missions. These include communications satellites like Starlink; space stations such as the ISS; scientific satellites like the Hubble; Earth observation satellites from companies like Planet Labs, Umbra, and HawkEye 360; GPS; miniature CubeSats for education and research; and military/defense satellites.

Loading next visibility...
Identifier
43034, 2017-077A
Orbit
SSO
Country
Flag of CNCN / PRC
Related business
Manufacturer
CAST?
Mission
Operational Defense Imaging
Bus & Motor
LKW, Unknown motor
Mass
~2,000 kg wet, ~2,000 kg dry
Launch date (UTC)
2017-12-03 (8 years ago)
Launch vehicle
CHANG ZHENG 2D
Launch site
Jiuquan Satellite Launch Center, China (JSC)
Object type
Payload
Rocket body
Debris
Shape & HBR
Hex Cyl + 3 Pan, 5.0 m
Radar Cross Section
8.135 m², Large (>1 m²)

Expand to show TLE details & history
Last TLE update: 10 hours ago

TLE from 10 hours ago
0 LKW-1
1 43034U 17077A   25351.29975337  .00005559  00000-0  23360-3 0  9998
2 43034  97.1250  30.0008 0004266  92.0353 268.1374 15.23796462447002
Epoch: 2025-12-17T07:11Z
TLE epoch observation values (Epoch: 2025-12-17T07:11:38.691Z)
Latitude
0.00004°
Longitude
-164.08202°
Altitude
497.602 km
Speed
7.616 km/s
True Right ascension
02h 00m 00s
True Declination
0° 00' 00"
Sunlit
Object was in full shadow at epoch
Visualization orbit readout
Latitude
Unknown
Longitude
Unknown
Altitude
Unknown
Speed
Unknown
Apparent Right ascension
Unknown
Apparent Declination
Unknown
Sunlit
N/A
Visualization observer readout
Local Sidereal Time
15:28:11
Azimuth
Unknown
Elevation
Unknown
Doppler factor
Unknown
Orbital elements
Apogee altitude
494.281 km
Perigee altitude
488.42 km
Semi-major axis
6,869.488 km
Eccentricity
0.00043
Inclination
97.125°
RAAN
30.0008°
Arg. of periapsis
92.0353°
True anomaly
268.08854°
Mean anomaly
268.1374°
Eccentric anomaly
268.11297°
Mean motion
3.81203 °/min
Orbital period
94.44 mins
BSTAR
0.0002336
Loading maneuver chart data...
Computing Atmospheric mass density...
Loading historical data...
Loading historical data...
Loading historical data...
Loading historical data...
Loading historical data...
Loading historical data...
Loading historical data...

Documentation

Showing up to 5 results
|